Regional Weather Roundup
Issued by NWS

Home | Current Version | Previous Version | Text Only | Print | Product List | Glossary Off
Versions: 1 2 3 4 5 6 7 8 9 10 11 12 13 14 15 16 17 18 19 20 21 22 23 24 25 26 27 28 29 30 31 32 33 34 35 36 37 38 39 40 41 42 43 44 45 46 47 48 49

000
ASUS45 KCYS 291510
RWRWY

WYOMING REGIONAL WEATHER ROUNDUP
NATIONAL WEATHER SERVICE CHEYENNE WY
900 AM MDT SAT AUG 29 2015

NOTE:  "FAIR" INDICATES FEW OR NO CLOUDS BELOW 12,000 FEET
WITH NO SIGNIFICANT WEATHER AND/OR OBSTRUCTIONS TO VISIBILITY.

WYZ001-291600-
YELLOWSTONE NATIONAL PARK

CITY           SKY/WX    TMP DP  RH WIND       PRES   REMARKS
LK YELLOWSTONE   N/A     58  45  62 CALM      30.36S
W YELLOWSTONE  NOT AVBL

$$
WYZ002>013-054>058-071-098>099-291600-
NORTHERN WYOMING

CITY           SKY/WX    TMP DP  RH WIND       PRES   REMARKS
JACKSON        PTSUNNY   55  43  62 CALM      30.29S
CODY           FAIR      72  41  33 SW7       30.12S
GREYBULL       FAIR      64  42  44 CALM      30.07S
WORLAND        FAIR      63  50  62 W6        30.08S
SHERIDAN       FAIR      69  45  41 CALM      30.04S
BUFFALO        FAIR      80  39  23 S5        30.12S
GILLETTE       FAIR      76  45  33 S12       30.09S
HULETT         FAIR      77  43  29 S10       30.11F
NEWCASTLE      FAIR      77  37  24 SE10      30.15S

$$
WYZ014>020-022>026-101>103-291600-
CENTRAL WYOMING

CITY           SKY/WX    TMP DP  RH WIND       PRES   REMARKS
BIG PINEY      FAIR      55  35  47 E5        30.34F
PINEDALE       FAIR      54  41  62 CALM      30.35F
DUBOIS         FAIR      57  36  44 NW7       30.31F
LANDER         FAIR      64  43  46 SE5       30.20R
RIVERTON       FAIR      65  40  39 CALM      30.20S
CASPER         FAIR      74  38  27 S7        30.19F
DOUGLAS        FAIR      68  42  38 CALM      30.20S

$$
WYZ021-027>030-104>119-291600-
SOUTHERN WYOMING

CITY           SKY/WX    TMP DP  RH WIND       PRES   REMARKS
EVANSTON       FAIR      66  35  31 CALM      30.31S
KEMMERER       FAIR      59  36  41 N8        30.33F
FORT BRIDGER   SUNNY     70  34  26 CALM      30.35S
ROCK SPRINGS   FAIR      63  34  33 VRB3      30.31S
DIXON          FAIR      63  38  40 SE7       30.36S
RAWLINS        FAIR      60  40  47 E3        30.34S
SARATOGA       FAIR      63  43  48 SE13      30.37F
LARAMIE        FAIR      59  42  53 S8        30.37S
CHEYENNE       FAIR      67  45  45 W3        30.30S
TORRINGTON     FAIR      65  50  58 CALM      30.17S
PINE BLUFFS    FAIR      63  45  51 S3        30.26S

$$


USA.gov is the U.S. government's official web portal to all federal, state and local government web resources and services.